Location: La Trinit�
(48.1620°N, 3.4512°W)
Time: 16:44:43
(UTC+00:00)

Cosmos 864 Rocket - Pass Details

Date: 08 May 2021
Orbit: 952 x 992 km, 82.9° (Epoch: 23 June)

Event Time Altitude Azimuth Distance (km) Brightness Sun altitude
Rises 23:29:37 0° 350° (N) 3,663 9.0 -23.9°
Reaches altitude 10° 23:32:08 10° 351° (N) 2,707 7.9 -23.9°
Maximum altitude 23:38:21 87° 81° (E) 964 4.4 -24.1°
Enters shadow 23:39:52 54° 168° (SSE) 1,146 4.4 -24.1°
